DW2099 Weather Reports


time (UTC)temp
C
wind
direction
speed
KPH
gust
KPH
rain 1hr
cm
rain 24hr
cm
rain mn
cm
humidity
%
barometer
mb
20260506195518 28 113 1.6 8.0 0.00 0.03 0.03 73 1010.9
20260506194538 28 113 3.2 9.7 0.00 0.03 0.03 72 1011.0
20260506193517 27 135 3.2 8.0 0.00 0.03 0.03 74 1010.9
20260506192517 27 113 4.8 12.9 0.00 0.03 0.03 72 1011.0
20260506191519 27 180 3.2 8.0 0.00 0.03 0.03 75 1011.2
20260506190517 27 135 3.2 9.7 0.00 0.03 0.03 73 1011.2
20260506185517 27 135 3.2 12.9 0.00 0.03 0.03 72 1011.1
20260506184517 27 203 1.6 4.8 0.00 0.03 0.03 75 1010.9
20260506183517 26 113 3.2 6.4 0.00 0.03 0.03 76 1010.9
20260506182517 26 113 3.2 8.0 0.00 0.03 0.03 75 1011.0
20260506181518 25 315 1.6 6.4 0.00 0.03 0.03 79 1011.0
20260506180517 23 315 1.6 3.2 0.00 0.03 0.03 80 1011.1
20260506175517 23 90 4.8 11.3 0.00 0.03 0.03 81 1011.3
20260506174517 22 90 1.6 4.8 0.00 0.03 0.03 85 1011.1
20260506173517 21 158 3.2 8.0 0.00 0.03 0.03 86 1011.5
20260506172518 20 225 3.2 9.7 0.00 0.03 0.03 86 1012.2
20260506171517 20 180 4.8 11.3 0.00 0.03 0.03 87 1012.4
20260506170517 20 113 4.8 12.9 0.00 0.03 0.03 86 1012.6
20260506165517 20 135 6.4 19.3 0.00 0.03 0.03 86 1012.5
20260506164517 21 158 8.0 27.4 0.00 0.03 0.03 84 1012.5
20260506163517 24 113 9.7 22.5 0.00 0.03 0.03 78 1012.6
20260506162517 26 158 1.6 6.4 0.00 0.03 0.03 87 1012.4
20260506161517 26 113 1.6 6.4 0.00 0.03 0.03 88 1012.3
20260506160517 26 180 1.6 4.8 0.00 0.03 0.03 89 1012.4
20260506155537 26 0.0 3.2 0.00 0.03 0.03 90 1012.0
20260506154517 25 0.0 1.6 0.00 0.03 0.03 90 1011.7
20260506153517 25 0.0 1.6 0.00 0.03 0.03 91 1011.2
20260506152517 25 0.0 1.6 0.00 0.03 0.03 91 1011.3
20260506151517 25 0.0 3.2 0.00 0.03 0.03 91 1011.0
20260506150517 25 0.0 1.6 0.00 0.03 0.03 92 1010.8
20260506145517 25 0.0 1.6 0.00 0.03 0.03 92 1010.6
20260506144517 25 0.0 0.0 0.00 0.03 0.03 92 1010.6
20260506143517 25 0.0 0.0 0.00 0.03 0.03 92 1010.7
20260506142517 25 0.0 0.0 0.00 0.03 0.03 92 1010.8
20260506141517 24 0.0 0.0 0.00 0.03 0.03 93 1010.6
20260506140517 24 0.0 4.8 0.00 0.03 0.03 93 1010.2
20260506135516 24 0.0 1.6 0.00 0.03 0.03 93 1009.9
20260506134517 24 0.0 0.0 0.00 0.03 0.03 93 1009.7
20260506133517 24 0.0 1.6 0.00 0.03 0.03 94 1009.7
20260506132517 23 0.0 3.2 0.03 0.03 0.03 94 1009.7
20260506131517 23 0.0 4.8 0.03 0.03 0.03 94 1009.7
20260506130516 23 0.0 0.0 0.03 0.03 0.03 94 1009.7
20260506125517 23 0.0 3.2 0.03 0.03 0.03 94 1009.8
20260506124516 23 0.0 1.6 0.03 0.03 0.03 93 1009.9
20260506123517 23 0.0 1.6 0.03 0.03 0.03 93 1009.8
20260506122517 23 0.0 1.6 0.00 0.00 0.00 92 1009.7
20260506121537 23 0.0 0.0 0.00 0.00 0.00 92 1009.7
20260506120516 23 0.0 0.0 0.00 0.00 0.00 92 1009.7
20260506115516 23 0.0 0.0 0.00 0.00 0.00 92 1009.8
20260506114516 24 0.0 0.0 0.00 0.00 0.00 92 1009.6
20260506113517 24 0.0 0.0 0.00 0.00 0.00 91 1009.7
20260506112518 24 0.0 0.0 0.00 0.00 0.00 91 1009.5
20260506111517 24 0.0 1.6 0.00 0.00 0.00 91 1009.3
20260506110517 24 0.0 1.6 0.00 0.00 0.00 91 1009.3
20260506105537 24 0.0 3.2 0.00 0.00 0.00 91 1009.2
20260506104517 24 0.0 3.2 0.00 0.00 0.00 91 1009.2
20260506103517 24 0.0 1.6 0.00 0.00 0.00 91 1009.1
20260506102516 24 0.0 3.2 0.00 0.00 0.00 91 1009.0
20260506101516 24 0.0 3.2 0.00 0.00 0.00 91 1009.0
20260506100516 24 293 1.6 4.8 0.00 0.00 0.00 91 1008.7
20260506095516 24 293 1.6 11.3 0.00 0.00 0.00 91 1008.6
20260506094517 24 293 1.6 9.7 0.00 0.00 0.00 91 1008.5
20260506093516 24 0.0 3.2 0.00 0.00 0.00 91 1008.4
20260506092516 24 315 1.6 4.8 0.00 0.00 0.00 91 1008.4
20260506091617 24 315 1.6 6.4 0.00 0.00 0.00 91 1008.2
20260506090516 24 315 3.2 9.7 0.00 0.00 0.00 91 1008.4
20260506085516 24 315 3.2 6.4 0.00 0.00 0.00 91 1008.4
20260506084516 24 315 1.6 8.0 0.00 0.00 0.00 91 1008.4
20260506083516 24 293 1.6 4.8 0.00 0.00 0.00 91 1008.5
20260506082516 24 315 1.6 4.8 0.00 0.00 0.00 91 1008.3
20260506081536 24 315 3.2 8.0 0.00 0.00 0.00 92 1008.4
20260506080517 24 0.0 3.2 0.00 0.00 0.00 92 1008.5
20260506073516 23 315 1.6 6.4 0.00 0.00 0.00 92 1008.6
20260506072556 23 293 1.6 4.8 0.00 0.00 0.00 92 1008.8
20260506071516 23 315 1.6 8.0 0.00 0.00 0.00 92 1008.9
20260506070516 23 0.0 3.2 0.00 0.00 0.00 92 1008.9
20260506062516 23 315 1.6 6.4 0.00 0.00 0.00 91 1008.9
20260506061516 23 293 1.6 8.0 0.00 0.00 0.00 91 1008.9
20260506060536 23 293 1.6 6.4 0.00 0.00 0.00 91 1009.0
20260506050516 24 315 1.6 4.8 0.00 0.00 0.00 90 1009.0
20260506044516 24 315 1.6 4.8 0.00 0.00 0.00 90 1009.0
20260506043516 24 293 1.6 4.8 0.00 0.00 0.00 89 1008.9
20260506042516 24 315 3.2 8.0 0.00 0.00 0.00 89 1008.8
20260506041536 24 315 3.2 8.0 0.00 0.00 0.00 89 1008.9
20260506040516 24 315 1.6 4.8 0.00 0.00 0.00 88 1008.9
20260506035516 25 293 3.2 8.0 0.00 0.00 0.00 88 1008.7
20260506034516 25 315 1.6 6.4 0.00 0.00 0.00 88 1008.4
20260506033516 25 315 3.2 8.0 0.00 0.00 0.00 88 1008.3
20260506032516 25 293 1.6 6.4 0.00 0.00 0.00 88 1008.3
20260506031516 25 293 1.6 6.4 0.00 0.00 0.00 87 1008.2
20260506030516 25 315 1.6 6.4 0.00 0.00 0.00 87 1008.0
20260506025516 25 293 1.6 4.8 0.00 0.00 0.00 86 1007.8
20260506024516 25 293 1.6 4.8 0.00 0.00 0.00 86 1007.6
20260506023516 25 315 1.6 6.4 0.00 0.00 0.00 86 1007.7
20260506022516 25 293 3.2 6.4 0.00 0.00 0.00 85 1007.4
20260506021516 26 315 3.2 9.7 0.00 0.00 0.00 85 1007.0
20260506020516 26 315 3.2 8.0 0.00 0.00 0.00 84 1007.3
20260506015516 26 315 3.2 8.0 0.00 0.00 0.00 84 1007.1
20260506014516 26 315 1.6 9.7 0.00 0.00 0.00 83 1007.1
20260506013516 26 315 3.2 8.0 0.00 0.00 0.00 83 1007.0
20260506012516 27 293 1.6 6.4 0.00 0.00 0.00 82 1006.9
20260506011516 27 293 1.6 6.4 0.00 0.00 0.00 82 1006.9
20260506010536 27 315 3.2 8.0 0.00 0.00 0.00 82 1006.8
20260506005536 27 315 1.6 4.8 0.00 0.00 0.00 81 1006.5
20260506004516 27 293 1.6 9.7 0.00 0.00 0.00 80 1006.4
20260506003516 27 293 3.2 9.7 0.00 0.00 0.00 80 1006.3
20260506002516 27 315 3.2 11.3 0.00 0.00 0.00 79 1006.2
20260506001517 28 315 3.2 8.0 0.00 0.00 0.00 79 1006.0
20260506000516 28 315 1.6 6.4 0.00 0.00 0.00 78 1006.2
20260505235516 28 293 1.6 4.8 0.00 0.00 0.00 77 1006.0
20260505234516 28 315 3.2 9.7 0.00 0.00 0.00 76 1005.9
20260505233556 29 293 3.2 11.3 0.00 0.00 0.00 75 1005.9
20260505232516 29 293 1.6 12.9 0.00 0.00 0.00 74 1006.0
20260505231515 29 293 1.6 8.0 0.00 0.00 0.00 74 1006.0
20260505230536 29 315 1.6 11.3 0.00 0.00 0.00 73 1005.9
20260505225536 29 293 1.6 6.4 0.00 0.00 0.00 74 1006.0
20260505224516 29 293 3.2 9.7 0.00 0.00 0.00 74 1006.0
20260505223515 29 293 3.2 9.7 0.00 0.00 0.00 74 1005.8
20260505222515 29 270 1.6 4.8 0.00 0.00 0.00 74 1006.1
20260505221556 29 293 1.6 6.4 0.00 0.00 0.00 74 1006.0
20260505220517 29 293 3.2 8.0 0.00 0.00 0.00 74 1006.2
20260505215516 30 293 4.8 11.3 0.00 0.00 0.00 72 1006.3
20260505214518 29 338 1.6 4.8 0.00 0.00 0.00 74 1006.3
20260505213517 28 315 4.8 14.5 0.00 0.00 0.00 74 1006.3
20260505212518 28 315 4.8 9.7 0.00 0.00 0.00 74 1006.4
20260505211517 29 315 3.2 9.7 0.00 0.00 0.00 75 1006.6
20260505210517 29 270 1.6 9.7 0.00 0.00 0.00 74 1006.7
20260505205518 28 315 3.2 9.7 0.00 0.00 0.00 75 1007.0
20260505204517 28 270 3.2 9.7 0.00 0.00 0.00 75 1007.2
20260505203517 28 315 4.8 16.1 0.00 0.00 0.00 75 1007.3
20260505202517 28 90 3.2 6.4 0.00 0.00 0.00 76 1007.5
20260505201537 28 315 4.8 11.3 0.00 0.00 0.00 76 1007.5
20260505200517 28 293 3.2 9.7 0.00 0.00 0.00 76 1007.8